,,Stat6,,Stat2,,Stat8,,Stat9,,Stat10,,Wind1,,Wind1,
time,status,PA1M_AVG,status,PR1M_SUM,status,RH1M_AVG,status,SR1M_AVG,status,TA1M_AVG,status,W1dAve1m,status,W1sAve1m,
2004-11-09, 00:00:00,VALID,918.369,VALID,0,VALID,100,VALID,-0.101885,VALID,20.0322,VALID,16,VALID,0,
2004-11-09, 00:01:00,VALID,918.37,VALID,0,VALID,100,VALID,0,VALID,20.0078,VALID,16,VALID,0.0436357,
2004-11-09, 00:02:00,VALID,918.357,VALID,0,VALID,100,VALID,0.0169808,VALID,19.9879,VALID,351,VALID,0.247768,
2004-11-09, 00:03:00,VALID,918.37,VALID,0,VALID,100,VALID,0.0169808,VALID,20.011,VALID,335,VALID,0.00581395,
2004-11-09, 00:04:00,VALID,918.376,VALID,0,VALID,100,VALID,0.0339617,VALID,20.0304,VALID,335,VALID,0,
2004-11-09, 00:05:00,VALID,918.406,VALID,0,VALID,100,VALID,0.0169808,VALID,20.0436,VALID,335,VALID,0.0796494,
2004-11-09, 00:06:00,VALID,918.404,VALID,0,VALID,100,VALID,0,VALID,20.0398,VALID,335,VALID,0.154204,
2004-11-09, 00:07:00,VALID,918.415,VALID,0,VALID,100,VALID,0,VALID,20.0366,VALID,328,VALID,0.31359,
2004-11-09, 00:08:00,VALID,918.415,VALID,0,VALID,100,VALID,0.0169808,VALID,20.0339,VALID,305,VALID,0.207919,
2004-11-09, 00:09:00,VALID,918.433,VALID,0,VALID,100,VALID,-0.0169808,VALID,20.0307,VALID,305,VALID,0.0748857,
2004-11-09, 00:10:00,VALID,918.441,VALID,0,VALID,100,VALID,0.0169808,VALID,20.0299,VALID,305,VALID,0.133384,
2004-11-09, 00:11:00,VALID,918.443,VALID,0,VALID,100,VALID,0.0169808,VALID,20.0431,VALID,305,VALID,0.0838542,
2004-11-09, 00:12:00,VALID,918.438,VALID,0,VALID,100,VALID,0.0339617,VALID,20.0632,VALID,305,VALID,0.0118096,
2004-11-09, 00:13:00,VALID,918.436,VALID,0,VALID,100,VALID,0,VALID,20.0659,VALID,305,VALID,0.000181686,
2004-11-09, 00:14:00,VALID,918.427,VALID,0,VALID,100,VALID,0.0169808,VALID,20.0687,VALID,305,VALID,0.317383,
2004-11-09, 00:15:00,VALID,918.407,VALID,0,VALID,100,VALID,0,VALID,20.0694,VALID,305,VALID,0.301525,
2004-11-09, 00:16:00,VALID,918.377,VALID,0,VALID,100,VALID,0.0169808,VALID,20.0562,VALID,339,VALID,0.300509,
2004-11-09, 00:17:00,VALID,918.351,VALID,0,VALID,100,VALID,0.0169808,VALID,20.0436,VALID,49,VALID,0.358774,
2004-11-09, 00:18:00,VALID,918.337,VALID,0,VALID,100,VALID,0.0169808,VALID,20.0242,VALID,53,VALID,0.174055,
2004-11-09, 00:19:00,VALID,918.313,VALID,0,VALID,100,VALID,0,VALID,20.021,VALID,53,VALID,0.0167411,
2004-11-09, 00:20:00,VALID,918.312,VALID,0,VALID,100,VALID,0.0509425,VALID,20.0436,VALID,53,VALID,0.0191761,
2004-11-09, 00:21:00,VALID,918.313,VALID,0,VALID,100,VALID,0,VALID,20.0627,VALID,53,VALID,0.140092,
2004-11-09, 00:22:00,VALID,918.335,VALID,0,VALID,100,VALID,0,VALID,20.0629,VALID,53,VALID,0.21596,
2004-11-09, 00:23:00,VALID,918.344,VALID,0,VALID,100,VALID,0,VALID,20.06,VALID,53,VALID,0.0369665,
2004-11-09, 00:24:00,VALID,918.355,VALID,0,VALID,100,VALID,0.0169808,VALID,20.0431,VALID,87,VALID,0.406613,
2004-11-09, 00:25:00,VALID,918.36,VALID,0,VALID,100,VALID,0,VALID,20.0175,VALID,132,VALID,0.736979,
2004-11-09, 00:26:00,VALID,918.357,VALID,0,VALID,100,VALID,0.0339617,VALID,19.9723,VALID,129,VALID,0.489258,
2004-11-09, 00:27:00,VALID,918.346,VALID,0,VALID,100,VALID,0.0169808,VALID,19.9529,VALID,108,VALID,0.702934,
2004-11-09, 00:28:00,VALID,918.339,VALID,0,VALID,100,VALID,0,VALID,19.9206,VALID,110,VALID,0.707217,
2004-11-09, 00:29:00,VALID,918.331,VALID,0,VALID,100,VALID,0,VALID,19.9338,VALID,127,VALID,0.47561,
2004-11-09, 00:30:00,VALID,918.317,VALID,0,VALID,100,VALID,0.0169808,VALID,19.9042,VALID,130,VALID,0.921317,
2004-11-09, 00:31:00,VALID,918.301,VALID,0,VALID,100,VALID,0.0169808,VALID,19.892,VALID,130,VALID,0.825694,
2004-11-09, 00:32:00,VALID,918.293,VALID,0,VALID,100,VALID,0,VALID,19.8657,VALID,144,VALID,1.02474,
2004-11-09, 00:33:00,VALID,918.286,VALID,0,VALID,100,VALID,0,VALID,19.8433,VALID,145,VALID,0.940407,
2004-11-09, 00:34:00,VALID,918.281,VALID,0,VALID,100,VALID,0.0169808,VALID,19.8339,VALID,141,VALID,1.07422,
2004-11-09, 00:35:00,VALID,918.286,VALID,0,VALID,100,VALID,0,VALID,19.8207,VALID,153,VALID,0.829397,
2004-11-09, 00:36:00,VALID,918.297,VALID,0,VALID,100,VALID,0.0169808,VALID,19.8143,VALID,161,VALID,0.686773,
2004-11-09, 00:37:00,VALID,918.302,VALID,0,VALID,100,VALID,0.0169808,VALID,19.8148,VALID,134,VALID,0.431108,
2004-11-09, 00:38:00,VALID,918.314,VALID,0,VALID,100,VALID,0,VALID,19.8177,VALID,132,VALID,0.408794,
2004-11-09, 00:39:00,VALID,918.307,VALID,0,VALID,100,VALID,0.0169808,VALID,19.8202,VALID,136,VALID,1.11235,
2004-11-09, 00:40:00,VALID,918.314,VALID,0,VALID,100,VALID,0,VALID,19.8073,VALID,124,VALID,0.742551,
2004-11-09, 00:41:00,VALID,918.306,VALID,0,VALID,100,VALID,0,VALID,19.8048,VALID,118,VALID,0.567708,
2004-11-09, 00:42:00,VALID,918.294,VALID,0,VALID,100,VALID,-0.0169808,VALID,19.8083,VALID,116,VALID,0.467949,
2004-11-09, 00:43:00,VALID,918.3,VALID,0,VALID,100,VALID,0,VALID,19.8048,VALID,79,VALID,0.388417,
2004-11-09, 00:44:00,VALID,918.283,VALID,0,VALID,100,VALID,-0.0169808,VALID,19.8115,VALID,97,VALID,0.273074,
2004-11-09, 00:45:00,VALID,918.263,VALID,0,VALID,100,VALID,-0.0169808,VALID,19.8309,VALID,77,VALID,0.256177,
2004-11-09, 00:46:00,VALID,918.252,VALID,0,VALID,100,VALID,-0.0169808,VALID,19.8473,VALID,44,VALID,0.601944,
2004-11-09, 00:47:00,VALID,918.24,VALID,0,VALID,100,VALID,0,VALID,19.8791,VALID,36,VALID,0.828506,
2004-11-09, 00:48:00,VALID,918.217,VALID,0.2,VALID,100,VALID,0,VALID,19.9049,VALID,35,VALID,0.782965,
2004-11-09, 00:49:00,VALID,918.203,VALID,0,VALID,100,VALID,0,VALID,19.9111,VALID,35,VALID,0.749814,
2004-11-09, 00:50:00,VALID,918.172,VALID,0,VALID,100,VALID,0,VALID,19.9179,VALID,36,VALID,0.589258,
2004-11-09, 00:51:00,VALID,918.143,VALID,0,VALID,100,VALID,0,VALID,19.9049,VALID,42,VALID,0.605664,
2004-11-09, 00:52:00,VALID,918.113,VALID,0,VALID,100,VALID,0,VALID,19.8883,VALID,43,VALID,0.559028,
2004-11-09, 00:53:00,VALID,918.101,VALID,0,VALID,100,VALID,0.0169808,VALID,19.8789,VALID,47,VALID,0.504724,
2004-11-09, 00:54:00,VALID,918.076,VALID,0,VALID,100,VALID,0,VALID,19.8729,VALID,47,VALID,0.344322,
2004-11-09, 00:55:00,VALID,918.038,VALID,0,VALID,100,VALID,0,VALID,19.853,VALID,51,VALID,0.52782,
2004-11-09, 00:56:00,VALID,918.028,VALID,0,VALID,100,VALID,0,VALID,19.8433,VALID,62,VALID,0.699306,
2004-11-09, 00:57:00,VALID,918.001,VALID,0,VALID,100,VALID,0,VALID,19.8299,VALID,63,VALID,0.552734,
2004-11-09, 00:58:00,VALID,918.004,VALID,0,VALID,100,VALID,0.0169808,VALID,19.8396,VALID,63,VALID,0.477653,
2004-11-09, 00:59:00,VALID,917.974,VALID,0,VALID,100,VALID,0,VALID,19.8562,VALID,64,VALID,0.647711,
2004-11-09, 01:00:00,VALID,917.951,VALID,0,VALID,100,VALID,0.0169808,VALID,19.859,VALID,66,VALID,0.449591,
2004-11-09, 01:01:00,VALID,917.943,VALID,0,VALID,100,VALID,-0.0849042,VALID,19.857,VALID,74,VALID,0.611852,
2004-11-09, 01:02:00,VALID,917.925,VALID,0,VALID,100,VALID,-0.101885,VALID,19.8515,VALID,77,VALID,0.532738,
2004-11-09, 01:03:00,VALID,917.919,VALID,0,VALID,100,VALID,-0.0849042,VALID,19.8478,VALID,74,VALID,0.473656,
2004-11-09, 01:04:00,VALID,917.898,VALID,0,VALID,100,VALID,-0.0849042,VALID,19.8548,VALID,73,VALID,0.545987,
2004-11-09, 01:05:00,VALID,917.887,VALID,0,VALID,100,VALID,-0.0849042,VALID,19.8443,VALID,82,VALID,0.786272,
2004-11-09, 01:06:00,VALID,917.861,VALID,0,VALID,100,VALID,-0.101885,VALID,19.8317,VALID,85,VALID,0.956055,
2004-11-09, 01:07:00,VALID,917.831,VALID,0,VALID,100,VALID,-0.0849042,VALID,19.8187,VALID,74,VALID,0.994792,
2004-11-09, 01:08:00,VALID,917.804,VALID,0,VALID,100,VALID,-0.101885,VALID,19.8289,VALID,79,VALID,0.943004,
2004-11-09, 01:09:00,VALID,917.775,VALID,0,VALID,100,VALID,-0.0679233,VALID,19.8324,VALID,82,VALID,1.03906,
2004-11-09, 01:10:00,VALID,917.735,VALID,0,VALID,100,VALID,-0.101885,VALID,19.8125,VALID,81,VALID,0.981771,
2004-11-09, 01:11:00,VALID,917.72,VALID,0,VALID,100,VALID,-0.101885,VALID,19.8163,VALID,84,VALID,0.806891,
2004-11-09, 01:12:00,VALID,917.703,VALID,0,VALID,100,VALID,-0.101885,VALID,19.8257,VALID,87,VALID,0.634943,
2004-11-09, 01:13:00,VALID,917.705,VALID,0,VALID,100,VALID,-0.0849042,VALID,19.8222,VALID,95,VALID,0.517969,
2004-11-09, 01:14:00,VALID,917.703,VALID,0,VALID,100,VALID,-0.101885,VALID,19.8187,VALID,87,VALID,0.797637,
2004-11-09, 01:15:00,VALID,917.692,VALID,0,VALID,100,VALID,-0.0849042,VALID,19.8158,VALID,88,VALID,1.12691,
2004-11-09, 01:16:00,VALID,917.69,VALID,0,VALID,100,VALID,-0.101885,VALID,19.7991,VALID,78,VALID,1.00781,
2004-11-09, 01:17:00,VALID,917.683,VALID,0,VALID,100,VALID,-0.0849042,VALID,19.8163,VALID,78,VALID,0.87035,
2004-11-09, 01:18:00,VALID,917.675,VALID,0,VALID,100,VALID,-0.0679233,VALID,19.8279,VALID,73,VALID,0.688953,
2004-11-09, 01:19:00,VALID,917.662,VALID,0,VALID,100,VALID,-0.0679233,VALID,19.8448,VALID,103,VALID,0.431176,
2004-11-09, 01:20:00,VALID,917.658,VALID,0,VALID,100,VALID,-0.0849042,VALID,19.858,VALID,145,VALID,0.74721,
2004-11-09, 01:21:00,VALID,917.648,VALID,0,VALID,100,VALID,-0.101885,VALID,19.8381,VALID,129,VALID,0.990057,
2004-11-09, 01:22:00,VALID,917.643,VALID,0,VALID,100,VALID,-0.0849042,VALID,19.852,VALID,127,VALID,0.767805,
2004-11-09, 01:23:00,VALID,917.626,VALID,0,VALID,100,VALID,-0.0849042,VALID,19.8545,VALID,134,VALID,0.727628,
2004-11-09, 01:24:00,VALID,917.614,VALID,0,VALID,100,VALID,-0.101885,VALID,19.8582,VALID,145,VALID,0.789063,
2004-11-09, 01:25:00,VALID,917.608,VALID,0,VALID,100,VALID,-0.0849042,VALID,19.8481,VALID,149,VALID,0.665587,
2004-11-09, 01:26:00,VALID,917.587,VALID,0,VALID,100,VALID,-0.101885,VALID,19.8413,VALID,121,VALID,0.695668,
2004-11-09, 01:27:00,VALID,917.577,VALID,0,VALID,100,VALID,-0.0849042,VALID,19.8381,VALID,106,VALID,0.705124,
2004-11-09, 01:28:00,VALID,917.547,VALID,0,VALID,100,VALID,-0.0849042,VALID,19.8386,VALID,134,VALID,0.818924,
2004-11-09, 01:29:00,VALID,917.534,VALID,0,VALID,100,VALID,-0.0849042,VALID,19.8518,VALID,146,VALID,0.522436,
2004-11-09, 01:30:00,VALID,917.511,VALID,0,VALID,100,VALID,-0.0679233,VALID,19.8346,VALID,128,VALID,0.555778,
2004-11-09, 01:31:00,VALID,917.479,VALID,0,VALID,100,VALID,0,VALID,19.8272,VALID,102,VALID,0.947674,
2004-11-09, 01:32:00,VALID,917.457,VALID,0,VALID,100,VALID,0,VALID,19.8162,VALID,131,VALID,0.624023,
2004-11-09, 01:33:00,VALID,917.433,VALID,0,VALID,100,VALID,0.0849042,VALID,19.8366,VALID,144,VALID,0.338663,
2004-11-09, 01:34:00,VALID,917.418,VALID,0,VALID,100,VALID,0.0339617,VALID,19.8262,VALID,122,VALID,0.540661,
2004-11-09, 01:35:00,VALID,917.416,VALID,0,VALID,100,VALID,0.0679233,VALID,19.8498,VALID,122,VALID,0.31994,
2004-11-09, 01:36:00,VALID,917.399,VALID,0,VALID,100,VALID,0.0339617,VALID,19.8401,VALID,115,VALID,0.6875,
2004-11-09, 01:37:00,VALID,917.396,VALID,0,VALID,100,VALID,0.0169808,VALID,19.8398,VALID,148,VALID,0.40843,
2004-11-09, 01:38:00,VALID,917.373,VALID,0,VALID,100,VALID,0.0169808,VALID,19.8361,VALID,138,VALID,1.11937,
2004-11-09, 01:39:00,VALID,917.349,VALID,0,VALID,100,VALID,0.0169808,VALID,19.8143,VALID,160,VALID,0.867746,
2004-11-09, 01:40:00,VALID,917.321,VALID,0,VALID,100,VALID,0.0169808,VALID,19.8008,VALID,137,VALID,1.06855,
2004-11-09, 01:41:00,VALID,917.3,VALID,0,VALID,100,VALID,0.0169808,VALID,19.8011,VALID,149,VALID,1.12984,
2004-11-09, 01:42:00,VALID,917.278,VALID,0,VALID,100,VALID,0.0339617,VALID,19.7847,VALID,143,VALID,0.933594,
2004-11-09, 01:43:00,VALID,917.242,VALID,0,VALID,100,VALID,0,VALID,19.782,VALID,135,VALID,1.05764,
2004-11-09, 01:44:00,VALID,917.226,VALID,0,VALID,100,VALID,0.0339617,VALID,19.7594,VALID,148,VALID,0.960007,
2004-11-09, 01:45:00,VALID,917.212,VALID,0,VALID,100,VALID,0.0169808,VALID,19.7596,VALID,131,VALID,0.864955,
2004-11-09, 01:46:00,VALID,917.208,VALID,0,VALID,100,VALID,-0.0849042,VALID,19.7345,VALID,123,VALID,0.485283,
2004-11-09, 01:47:00,VALID,917.191,VALID,0,VALID,100,VALID,-0.0679233,VALID,19.7184,VALID,123,VALID,0.175509,
2004-11-09, 01:48:00,VALID,917.182,VALID,0,VALID,100,VALID,-0.101885,VALID,19.7154,VALID,123,VALID,0.213728,
2004-11-09, 01:49:00,VALID,917.174,VALID,0,VALID,100,VALID,-0.0509425,VALID,19.7156,VALID,123,VALID,0.091654,
2004-11-09, 01:50:00,VALID,917.169,VALID,0,VALID,100,VALID,-0.0679233,VALID,19.7276,VALID,80,VALID,0.440625,
2004-11-09, 01:51:00,VALID,917.16,VALID,0,VALID,100,VALID,-0.0509425,VALID,19.734,VALID,50,VALID,0.425781,
2004-11-09, 01:52:00,VALID,917.159,VALID,0,VALID,100,VALID,-0.0339617,VALID,19.7345,VALID,50,VALID,0.598772,
2004-11-09, 01:53:00,VALID,917.131,VALID,0,VALID,100,VALID,-0.0509425,VALID,19.7412,VALID,52,VALID,0.815905,
2004-11-09, 01:54:00,VALID,917.121,VALID,0,VALID,100,VALID,-0.0849042,VALID,19.7447,VALID,46,VALID,1.2689,
2004-11-09, 01:55:00,VALID,917.101,VALID,0,VALID,100,VALID,-0.101885,VALID,19.7377,VALID,42,VALID,0.800426,
2004-11-09, 01:56:00,VALID,917.096,VALID,0,VALID,100,VALID,-0.101885,VALID,19.7452,VALID,51,VALID,0.662791,
2004-11-09, 01:57:00,VALID,917.079,VALID,0,VALID,100,VALID,-0.0679233,VALID,19.7184,VALID,58,VALID,0.607422,
2004-11-09, 01:58:00,VALID,917.067,VALID,0,VALID,100,VALID,-0.0849042,VALID,19.7054,VALID,80,VALID,0.562863,
2004-11-09, 01:59:00,VALID,917.049,VALID,0,VALID,100,VALID,-0.0679233,VALID,19.6928,VALID,105,VALID,0.574306,
2004-11-09, 02:00:00,VALID,917.035,VALID,0,VALID,100,VALID,-0.0509425,VALID,19.6799,VALID,96,VALID,0.391426,
2004-11-09, 02:01:00,VALID,917.022,VALID,0,VALID,100,VALID,-0.0509425,VALID,19.6739,VALID,96,VALID,0.398958,
2004-11-09, 02:02:00,VALID,917.002,VALID,0,VALID,100,VALID,-0.0509425,VALID,19.6538,VALID,96,VALID,0.350694,
2004-11-09, 02:03:00,VALID,916.998,VALID,0,VALID,100,VALID,-0.0509425,VALID,19.6508,VALID,96,VALID,0.487723,
2004-11-09, 02:04:00,VALID,916.988,VALID,0,VALID,100,VALID,-0.0509425,VALID,19.6379,VALID,96,VALID,0.572266,
2004-11-09, 02:05:00,VALID,916.98,VALID,0,VALID,100,VALID,-0.101885,VALID,19.6279,VALID,94,VALID,0.564977,
2004-11-09, 02:06:00,VALID,916.958,VALID,0,VALID,100,VALID,-0.0509425,VALID,19.6344,VALID,78,VALID,0.776867,
2004-11-09, 02:07:00,VALID,916.934,VALID,0,VALID,100,VALID,-0.0339617,VALID,19.6379,VALID,66,VALID,0.63899,
2004-11-09, 02:08:00,VALID,916.92,VALID,0,VALID,100,VALID,-0.0679233,VALID,19.6284,VALID,37,VALID,0.702324,
2004-11-09, 02:09:00,VALID,916.883,VALID,0,VALID,100,VALID,-0.0339617,VALID,19.6252,VALID,31,VALID,0.420785,
2004-11-09, 02:10:00,VALID,916.868,VALID,0,VALID,100,VALID,-0.101885,VALID,19.6381,VALID,31,VALID,0.37035,
2004-11-09, 02:11:00,VALID,916.833,VALID,0,VALID,100,VALID,-0.0679233,VALID,19.6187,VALID,31,VALID,0.228125,
2004-11-09, 02:12:00,VALID,916.793,VALID,0,VALID,100,VALID,-0.0679233,VALID,19.6088,VALID,31,VALID,0.0541548,
2004-11-09, 02:13:00,VALID,916.778,VALID,0,VALID,100,VALID,-0.0849042,VALID,19.5956,VALID,31,VALID,0.279652,
2004-11-09, 02:14:00,VALID,916.75,VALID,0,VALID,100,VALID,-0.0849042,VALID,19.5959,VALID,31,VALID,0.29375,
2004-11-09, 02:15:00,VALID,916.711,VALID,0,VALID,100,VALID,-0.0339617,VALID,19.5763,VALID,31,VALID,0.577123,
2004-11-09, 02:16:00,VALID,916.683,VALID,0,VALID,100,VALID,0.0339617,VALID,19.5621,VALID,31,VALID,0.468936,
2004-11-09, 02:17:00,VALID,916.681,VALID,0,VALID,100,VALID,0.0169808,VALID,19.5621,VALID,29,VALID,0.645597,
2004-11-09, 02:18:00,VALID,916.663,VALID,0,VALID,100,VALID,0.0679233,VALID,19.5326,VALID,29,VALID,0.840545,
2004-11-09, 02:19:00,VALID,916.663,VALID,0,VALID,100,VALID,0.0339617,VALID,19.5368,VALID,30,VALID,0.746773,
2004-11-09, 02:20:00,VALID,916.651,VALID,0,VALID,100,VALID,0.0339617,VALID,19.5199,VALID,32,VALID,0.710069,
2004-11-09, 02:21:00,VALID,916.661,VALID,0,VALID,100,VALID,0.0169808,VALID,19.5306,VALID,32,VALID,0.83457,
2004-11-09, 02:22:00,VALID,916.662,VALID,0,VALID,100,VALID,0.0339617,VALID,19.501,VALID,40,VALID,0.832849,
2004-11-09, 02:23:00,VALID,916.674,VALID,0,VALID,100,VALID,0.0339617,VALID,19.5042,VALID,28,VALID,0.746449,
2004-11-09, 02:24:00,VALID,916.69,VALID,0,VALID,100,VALID,0.0679233,VALID,19.5075,VALID,23,VALID,0.620916,
2004-11-09, 02:25:00,VALID,916.69,VALID,0,VALID,100,VALID,0.0339617,VALID,19.4911,VALID,42,VALID,0.747954,
2004-11-09, 02:26:00,VALID,916.68,VALID,0,VALID,100,VALID,0.0339617,VALID,19.4844,VALID,38,VALID,0.679688,
2004-11-09, 02:27:00,VALID,916.678,VALID,0,VALID,100,VALID,0.0509425,VALID,19.4652,VALID,38,VALID,0.428597,
2004-11-09, 02:28:00,VALID,916.647,VALID,0,VALID,100,VALID,0.0509425,VALID,19.459,VALID,51,VALID,0.469122,
2004-11-09, 02:29:00,VALID,916.654,VALID,0,VALID,100,VALID,0.0339617,VALID,19.4359,VALID,52,VALID,0.829297,
2004-11-09, 02:30:00,VALID,916.635,VALID,0,VALID,100,VALID,0.0509425,VALID,19.43,VALID,52,VALID,0.636161,
2004-11-09, 02:31:00,VALID,916.633,VALID,0,VALID,100,VALID,-0.0679233,VALID,19.425,VALID,52,VALID,0.301235,
2004-11-09, 02:32:00,VALID,916.626,VALID,0,VALID,100,VALID,-0.101885,VALID,19.4255,VALID,52,VALID,0.304315,
2004-11-09, 02:33:00,VALID,916.645,VALID,0,VALID,100,VALID,-0.118866,VALID,19.4423,VALID,45,VALID,0.31684,
2004-11-09, 02:34:00,VALID,916.656,VALID,0,VALID,100,VALID,-0.135847,VALID,19.4289,VALID,46,VALID,0.469141,
2004-11-09, 02:35:00,VALID,916.666,VALID,0,VALID,100,VALID,-0.0849042,VALID,19.4095,VALID,68,VALID,0.587081,
2004-11-09, 02:36:00,VALID,916.66,VALID,0,VALID,100,VALID,-0.101885,VALID,19.384,VALID,108,VALID,0.588299,
2004-11-09, 02:37:00,VALID,916.667,VALID,0,VALID,100,VALID,-0.101885,VALID,19.3517,VALID,109,VALID,0.609003,
2004-11-09, 02:38:00,VALID,916.631,VALID,0,VALID,100,VALID,-0.101885,VALID,19.332,VALID,111,VALID,0.755814,
2004-11-09, 02:39:00,VALID,916.625,VALID,0,VALID,100,VALID,-0.118866,VALID,19.3159,VALID,97,VALID,0.98266,
2004-11-09, 02:40:00,VALID,916.599,VALID,0,VALID,100,VALID,-0.101885,VALID,19.2997,VALID,80,VALID,0.769231,
2004-11-09, 02:41:00,VALID,916.569,VALID,0,VALID,100,VALID,-0.101885,VALID,19.2702,VALID,82,VALID,0.858631,
2004-11-09, 02:42:00,VALID,916.529,VALID,0,VALID,100,VALID,-0.101885,VALID,19.267,VALID,85,VALID,0.590774,
2004-11-09, 02:43:00,VALID,916.521,VALID,0,VALID,100,VALID,-0.101885,VALID,19.2538,VALID,72,VALID,0.470424,
2004-11-09, 02:44:00,VALID,916.495,VALID,0,VALID,100,VALID,-0.0679233,VALID,19.2573,VALID,68,VALID,0.389062,
2004-11-09, 02:45:00,VALID,916.475,VALID,0,VALID,100,VALID,0.0169808,VALID,19.266,VALID,76,VALID,0.304315,
2004-11-09, 02:46:00,VALID,916.446,VALID,0,VALID,100,VALID,-0.0169808,VALID,19.2628,VALID,74,VALID,0.498094,
2004-11-09, 02:47:00,VALID,916.449,VALID,0,VALID,100,VALID,0,VALID,19.2757,VALID,56,VALID,0.666159,
2004-11-09, 02:48:00,VALID,916.434,VALID,0,VALID,100,VALID,0,VALID,19.2856,VALID,50,VALID,0.493712,
2004-11-09, 02:49:00,VALID,916.427,VALID,0,VALID,100,VALID,0,VALID,19.2787,VALID,50,VALID,0.488917,
2004-11-09, 02:50:00,VALID,916.431,VALID,0,VALID,100,VALID,0,VALID,19.2886,VALID,50,VALID,0.766927,
2004-11-09, 02:51:00,VALID,916.428,VALID,0,VALID,100,VALID,0,VALID,19.2826,VALID,50,VALID,0.617001,
2004-11-09, 02:52:00,VALID,916.425,VALID,0,VALID,100,VALID,0.0339617,VALID,19.2496,VALID,51,VALID,0.753906,
2004-11-09, 02:53:00,VALID,916.412,VALID,0,VALID,100,VALID,0,VALID,19.2367,VALID,59,VALID,0.854048,
2004-11-09, 02:54:00,VALID,916.415,VALID,0,VALID,100,VALID,0,VALID,19.2176,VALID,69,VALID,0.877604,
2004-11-09, 02:55:00,VALID,916.428,VALID,0,VALID,100,VALID,0.0169808,VALID,19.2046,VALID,73,VALID,0.658918,
2004-11-09, 02:56:00,VALID,916.425,VALID,0,VALID,100,VALID,0.0169808,VALID,19.2046,VALID,74,VALID,0.828683,
2004-11-09, 02:57:00,VALID,916.435,VALID,0,VALID,100,VALID,0,VALID,19.1855,VALID,70,VALID,0.762576,
2004-11-09, 02:58:00,VALID,916.441,VALID,0,VALID,100,VALID,0,VALID,19.1723,VALID,44,VALID,0.780208,
2004-11-09, 02:59:00,VALID,916.451,VALID,0,VALID,100,VALID,0.0509425,VALID,19.1592,VALID,38,VALID,0.83734,
2004-11-09, 03:00:00,VALID,916.45,VALID,0,VALID,100,VALID,0,VALID,19.1433,VALID,26,VALID,0.654762,
2004-11-09, 03:01:00,VALID,916.458,VALID,0,VALID,100,VALID,0.0169808,VALID,19.1242,VALID,31,VALID,0.488991,
2004-11-09, 03:02:00,VALID,916.461,VALID,0,VALID,100,VALID,0,VALID,19.111,VALID,41,VALID,0.477257,
2004-11-09, 03:03:00,VALID,916.471,VALID,0,VALID,100,VALID,0,VALID,19.0755,VALID,41,VALID,0.302557,
2004-11-09, 03:04:00,VALID,916.473,VALID,0,VALID,100,VALID,0.0169808,VALID,19.0492,VALID,41,VALID,0.12718,
2004-11-09, 03:05:00,VALID,916.48,VALID,0,VALID,100,VALID,0,VALID,19.03,VALID,42,VALID,0.336523,
2004-11-09, 03:06:00,VALID,916.473,VALID,0,VALID,100,VALID,0,VALID,19.0178,VALID,46,VALID,0.456395,
2004-11-09, 03:07:00,VALID,916.471,VALID,0,VALID,100,VALID,0,VALID,18.9881,VALID,89,VALID,0.443266,
2004-11-09, 03:08:00,VALID,916.48,VALID,0,VALID,100,VALID,0.0339617,VALID,18.9851,VALID,97,VALID,0.46657,
2004-11-09, 03:09:00,VALID,916.486,VALID,0,VALID,100,VALID,0,VALID,18.9985,VALID,153,VALID,0.530729,
2004-11-09, 03:10:00,VALID,916.477,VALID,0,VALID,100,VALID,0,VALID,18.9888,VALID,149,VALID,0.530887,
2004-11-09, 03:11:00,VALID,916.476,VALID,0,VALID,100,VALID,0.0169808,VALID,18.9955,VALID,147,VALID,0.416667,
2004-11-09, 03:12:00,VALID,916.484,VALID,0,VALID,100,VALID,0.0169808,VALID,19.0017,VALID,146,VALID,0.123828,
2004-11-09, 03:13:00,VALID,916.486,VALID,0,VALID,100,VALID,0.0169808,VALID,19.0144,VALID,146,VALID,0.242551,
2004-11-09, 03:14:00,VALID,916.484,VALID,0,VALID,100,VALID,0.0169808,VALID,19.0241,VALID,146,VALID,0.377907,
2004-11-09, 03:15:00,VALID,916.492,VALID,0,VALID,100,VALID,0.0169808,VALID,19.028,VALID,81,VALID,0.353087,
2004-11-09, 03:16:00,VALID,916.502,VALID,0,VALID,100,VALID,0,VALID,19.0243,VALID,33,VALID,0.0224609,
2004-11-09, 03:17:00,VALID,916.504,VALID,0,VALID,100,VALID,0,VALID,19.0208,VALID,33,VALID,0,
2004-11-09, 03:18:01,VALID,916.517,VALID,0,VALID,100,VALID,0,VALID,19.0156,VALID,33,VALID,0,
2004-11-09, 03:19:00,VALID,916.518,VALID,0,VALID,100,VALID,-0.0169808,VALID,18.9731,VALID,33,VALID,0,
2004-11-09, 03:20:00,VALID,916.523,VALID,0,VALID,100,VALID,0.0169808,VALID,18.9629,VALID,33,VALID,0,
2004-11-09, 03:21:00,VALID,916.534,VALID,0,VALID,100,VALID,0,VALID,18.9528,VALID,33,VALID,0.343192,
2004-11-09, 03:22:00,VALID,916.544,VALID,0,VALID,100,VALID,0,VALID,18.9339,VALID,41,VALID,0.371875,
2004-11-09, 03:23:00,VALID,916.54,VALID,0,VALID,100,VALID,-0.0169808,VALID,18.9304,VALID,99,VALID,0.798437,
2004-11-09, 03:24:01,VALID,916.545,VALID,0,VALID,100,VALID,0,VALID,18.9436,VALID,105,VALID,0.844131,
2004-11-09, 03:25:00,VALID,916.555,VALID,0,VALID,100,VALID,0,VALID,18.9468,VALID,107,VALID,0.686756,
2004-11-09, 03:26:00,VALID,916.553,VALID,0,VALID,100,VALID,-0.0169808,VALID,18.9505,VALID,107,VALID,0.736421,
2004-11-09, 03:27:01,VALID,916.571,VALID,0,VALID,100,VALID,0,VALID,18.9406,VALID,107,VALID,0.68892,
2004-11-09, 03:28:00,VALID,916.564,VALID,0,VALID,100,VALID,0,VALID,18.9242,VALID,105,VALID,0.388765,
2004-11-09, 03:29:01,VALID,916.564,VALID,0,VALID,100,VALID,0,VALID,18.882,VALID,105,VALID,0.298651,
2004-11-09, 03:30:00,VALID,916.574,VALID,0,VALID,100,VALID,0,VALID,18.8437,VALID,105,VALID,0.258185,
2004-11-09, 03:31:00,VALID,916.563,VALID,0,VALID,100,VALID,0,VALID,18.8117,VALID,105,VALID,0,
2004-11-09, 03:32:01,VALID,916.557,VALID,0,VALID,100,VALID,0.0169808,VALID,18.7764,VALID,105,VALID,0,
2004-11-09, 03:33:00,VALID,916.571,VALID,0,VALID,100,VALID,-0.0339617,VALID,18.7438,VALID,105,VALID,0.0176235,
2004-11-09, 03:34:00,VALID,916.559,VALID,0,VALID,100,VALID,0,VALID,18.7277,VALID,72,VALID,0.452939,
2004-11-09, 03:35:00,VALID,916.549,VALID,0,VALID,100,VALID,-0.0339617,VALID,18.7143,VALID,35,VALID,0.532812,
2004-11-09, 03:36:00,VALID,916.554,VALID,0,VALID,100,VALID,-0.0169808,VALID,18.7148,VALID,34,VALID,0.578316,
2004-11-09, 03:37:00,VALID,916.55,VALID,0,VALID,100,VALID,-0.0169808,VALID,18.7307,VALID,33,VALID,0.590234,
2004-11-09, 03:38:01,VALID,916.562,VALID,0,VALID,100,VALID,-0.0169808,VALID,18.763,VALID,32,VALID,0.410342,
2004-11-09, 03:39:00,VALID,916.577,VALID,0,VALID,100,VALID,-0.0169808,VALID,18.7923,VALID,32,VALID,0.203974,
2004-11-09, 03:40:00,VALID,916.6,VALID,0,VALID,100,VALID,0,VALID,18.7891,VALID,32,VALID,0.277616,
2004-11-09, 03:41:00,VALID,916.623,VALID,0,VALID,100,VALID,0,VALID,18.8121,VALID,32,VALID,0.198847,
2004-11-09, 03:42:00,VALID,916.63,VALID,0,VALID,100,VALID,-0.0679233,VALID,18.8248,VALID,32,VALID,0.0436046,